CW3712 Weather Reports


time (UTC)temp
F
wind
direction
speed
knots
gust
knots
rain 1hr
in
rain 24hr
in
rain mn
in
humidity
%
barometer
mb
20260510213037 69 253 5.2 12.2 0.00 0.12 0.00 59 1012.5
20260510211549 70 334 5.2 11.3 0.00 0.12 0.00 56 1012.4
20260510210050 71 253 5.2 10.4 0.00 0.12 0.00 53 1012.3
20260510204551 72 239 6.1 14.8 0.00 0.12 0.00 51 1012.1
20260510203034 73 248 3.5 8.7 0.00 0.12 0.00 50 1011.7
20260510201549 74 294 5.2 10.4 0.00 0.12 0.00 48 1011.7
20260510200035 74 283 5.2 13.0 0.00 0.12 0.00 48 1011.8
20260510194542 75 303 4.3 13.0 0.00 0.12 0.00 48 1011.9
20260510193050 74 299 2.6 10.4 0.00 0.12 0.00 49 1011.9
20260510191550 75 279 7.0 17.4 0.00 0.12 0.00 52 1012.0
20260510190055 74 312 5.2 12.2 0.00 0.14 0.00 54 1012.0
20260510184541 73 283 5.2 14.8 0.00 0.14 0.00 56 1012.1
20260510183025 73 324 3.5 8.7 0.00 0.14 0.00 56 1012.0
20260510181526 73 294 5.2 10.4 0.00 0.14 0.00 56 1012.0
20260510180032 72 291 5.2 8.7 0.00 0.14 0.00 60 1012.2
20260510174532 72 285 4.3 8.7 0.00 0.14 0.00 61 1012.1
20260510173044 72 243 0.9 7.8 0.00 0.14 0.00 62 1012.0
20260510171538 70 27 1.7 6.1 0.00 0.14 0.00 64 1012.0
20260510170048 70 250 1.7 3.5 0.00 0.14 0.00 67 1012.1
20260510164553 69 283 0.9 7.0 0.00 0.14 0.00 67 1012.3
20260510163037 67 336 1.7 6.1 0.00 0.14 0.00 71 1012.6
20260510161535 66 185 0.9 5.2 0.00 0.14 0.00 72 1012.6
20260510160034 64 163 0.9 6.1 0.00 0.14 0.00 76 1012.6
20260510154545 64 147 2.6 4.3 0.00 0.14 0.00 75 1012.7
20260510153057 63 245 2.6 6.1 0.00 0.14 0.00 78 1013.0
20260510151542 61 85 0.9 3.5 0.00 0.14 0.00 80 1012.9
20260510150055 60 132 2.6 4.3 0.00 0.14 0.00 81 1012.9
20260510144554 60 206 0.9 4.3 0.00 0.14 0.00 82 1013.0
20260510143103 59 179 0.9 3.5 0.00 0.14 0.00 83 1012.9
20260510141530 59 256 1.7 4.3 0.00 0.14 0.00 83 1012.9
20260510140034 58 183 0.9 4.3 0.00 0.14 0.00 85 1012.8
20260510134522 58 181 0.9 5.2 0.00 0.14 0.00 86 1012.6
20260510133027 57 269 0.9 4.3 0.00 0.14 0.00 87 1012.7
20260510131531 57 195 1.7 3.5 0.00 0.14 0.00 86 1012.6
20260510130038 57 128 1.7 3.5 0.00 0.14 0.00 87 1012.3
20260510124552 57 116 0.9 3.5 0.00 0.14 0.00 87 1012.2
20260510123056 56 166 0.0 3.5 0.00 0.14 0.00 87 1012.0
20260510121600 56 237 0.0 3.5 0.00 0.14 0.00 88 1011.9
20260510121502 56 237 0.9 3.5 0.00 0.14 0.00 88 1012.0
20260510120010 56 106 0.0 1.7 0.00 0.14 0.00 89 1011.9
20260510114512 55 106 0.0 1.7 0.00 0.14 0.00 90 1011.7
20260510113013 55 106 0.0 1.7 0.00 0.14 0.00 91 1011.8
20260510111552 54 106 1.7 3.5 0.00 0.14 0.00 90 1011.6
20260510110056 54 106 0.0 2.6 0.00 0.14 0.00 92 1011.0
20260510104601 54 49 0.0 2.6 0.00 0.14 0.00 92 1011.0
20260510103007 53 37 0.9 2.6 0.00 0.14 0.00 92 1011.2
20260510101509 53 37 0.0 2.6 0.00 0.14 0.00 92 1011.4
20260510100028 53 51 0.9 3.5 0.00 0.14 0.00 92 1011.1
20260510094518 52 52 0.9 3.5 0.00 0.14 0.00 92 1011.2
20260510093019 53 34 1.7 4.3 0.00 0.14 0.00 92 1011.4
20260510091526 53 33 1.7 3.5 0.00 0.14 0.00 92 1011.7
20260510090037 53 62 3.5 7.0 0.00 0.14 0.00 92 1011.5
20260510084551 53 27 1.7 7.0 0.00 0.14 0.00 93 1011.5
20260510083041 53 11 1.7 3.5 0.00 0.14 0.00 93 1011.4
20260510081553 53 23 0.0 2.6 0.00 0.14 0.00 93 1010.8
20260510080047 53 23 0.0 1.7 0.00 0.14 0.00 93 1010.7
20260510074547 53 23 1.7 3.5 0.00 0.14 0.00 93 1010.6
20260510073101 53 57 0.9 2.6 0.00 0.14 0.00 94 1010.4
20260510071555 52 34 0.0 2.6 0.00 0.14 0.00 93 1010.5
20260510070057 52 354 0.9 2.6 0.00 0.14 0.00 93 1010.6
20260510064508 51 359 1.7 2.6 0.00 0.14 0.00 93 1010.6
20260510063007 52 104 0.9 2.6 0.00 0.14 0.00 92 1010.4
20260510061513 51 104 0.0 1.7 0.00 0.14 0.00 92 1010.3
20260510060014 52 104 0.9 1.7 0.00 0.14 0.00 91 1010.3
20260510054517 52 104 0.0 1.7 0.00 0.14 0.00 91 1010.4
20260510053007 52 104 0.0 1.7 0.00 0.14 0.00 91 1010.5
20260510051509 52 104 0.0 0.9 0.00 0.14 0.00 91 1010.5
20260510050009 52 104 0.0 1.7 0.00 0.14 0.00 91 1010.6
20260510044527 52 104 0.0 1.7 0.00 0.14 0.00 90 1010.7
20260510043021 52 104 0.0 0.9 0.00 0.14 0.00 90 1010.7
20260510041506 52 104 0.9 2.6 0.00 0.14 0.00 91 1010.7
20260510040015 52 104 0.9 1.7 0.00 0.14 0.14 90 1010.6
20260510034548 53 104 0.0 0.9 0.00 0.14 0.14 90 1010.5
20260510033034 54 104 0.0 1.7 0.00 0.14 0.14 90 1010.3
20260510031537 54 104 0.0 1.7 0.00 0.14 0.14 91 1010.5
20260510030045 53 104 0.0 0.9 0.00 0.14 0.14 90 1010.2
20260510024548 54 104 0.0 1.7 0.00 0.14 0.14 91 1010.4
20260510023052 54 104 0.0 0.9 0.00 0.14 0.14 90 1010.5
20260510021600 54 104 0.0 0.9 0.00 0.14 0.14 90 1010.5
20260510020005 54 104 0.9 1.7 0.00 0.14 0.14 89 1010.4
20260510014512 55 104 0.0 0.9 0.00 0.14 0.14 89 1010.5
20260510013018 55 104 0.0 0.9 0.00 0.14 0.14 89 1010.3
20260510011537 55 104 0.9 1.7 0.00 0.14 0.14 89 1010.5
20260510010010 55 104 0.0 0.9 0.00 0.14 0.14 88 1010.1
20260510004516 55 104 0.0 0.9 0.00 0.14 0.14 88 1010.0
20260510003025 56 104 0.0 0.9 0.00 0.14 0.14 87 1010.0
20260510001527 56 104 0.0 0.9 0.00 0.14 0.14 86 1009.8
20260510000054 56 104 0.0 0.9 0.00 0.14 0.14 85 1009.7
20260509234545 57 104 0.9 1.7 0.00 0.14 0.14 86 1009.6
20260509233034 57 104 0.0 1.7 0.00 0.14 0.14 85 1009.5
20260509231538 57 104 0.9 2.6 0.00 0.14 0.14 85 1009.6
20260509230046 57 104 0.9 2.6 0.04 0.14 0.14 86 1009.7
20260509224548 56 104 1.7 3.5 0.06 0.14 0.14 86 1009.9
20260509223059 56 195 0.9 2.6 0.12 0.14 0.14 85 1009.9
20260509221556 57 195 0.0 2.6 0.12 0.14 0.14 85 1010.3
20260509221502 57 195 0.0 2.6 0.12 0.14 0.14 85 1010.3
20260509220050 57 299 0.0 2.6 0.08 0.10 0.10 84 1010.5
20260509214547 57 359 0.9 2.6 0.06 0.08 0.08 80 1010.3